| time (UTC) | temp C | wind direction | speed KPH | gust KPH | rain 1hr cm | rain 24hr cm | rain mn cm | humidity % | barometer mb |
| 20260508073319 | 10 | 360 | 0.0 | 0.0 | 0.13 | 0.64 | 0.25 | 89 | 1010.3 |
| 20260508072846 | 10 | 360 | 0.0 | 0.0 | 0.13 | 0.64 | 0.25 | 89 | 1010.4 |
| 20260508072325 | 10 | 360 | 0.0 | 0.0 | 0.13 | 0.64 | 0.25 | 89 | 1010.5 |
| 20260508071828 | 10 | 360 | 0.0 | 0.0 | 0.15 | 0.64 | 0.25 | 89 | 1010.6 |
| 20260508071330 | 10 | 360 | 0.0 | 0.0 | 0.10 | 0.56 | 0.18 | 89 | 1010.9 |
| 20260508070834 | 10 | 360 | 0.0 | 1.6 | 0.08 | 0.53 | 0.15 | 89 | 1010.9 |
| 20260508070317 | 10 | 360 | 0.0 | 3.2 | 0.08 | 0.53 | 0.15 | 89 | 1010.7 |
| 20260508065843 | 10 | 360 | 0.0 | 3.2 | 0.05 | 0.51 | 0.13 | 89 | 1010.7 |
| 20260508065346 | 10 | 360 | 0.0 | 1.6 | 0.05 | 0.51 | 0.13 | 89 | 1010.5 |
| 20260508064850 | 10 | 360 | 0.0 | 1.6 | 0.05 | 0.51 | 0.13 | 89 | 1010.6 |
| 20260508064332 | 10 | 360 | 0.0 | 1.6 | 0.08 | 0.51 | 0.13 | 89 | 1010.6 |
| 20260508063837 | 10 | 360 | 0.0 | 0.0 | 0.08 | 0.51 | 0.13 | 89 | 1010.8 |
| 20260508063321 | 10 | 360 | 0.0 | 0.0 | 0.13 | 0.51 | 0.13 | 89 | 1010.9 |
| 20260508062824 | 10 | 360 | 0.0 | 0.0 | 0.13 | 0.51 | 0.13 | 89 | 1011.1 |
| 20260508062323 | 10 | 360 | 0.0 | 1.6 | 0.13 | 0.51 | 0.13 | 89 | 1011.1 |
| 20260508061826 | 10 | 360 | 0.0 | 3.2 | 0.10 | 0.48 | 0.10 | 89 | 1011.2 |
| 20260508061330 | 10 | 360 | 1.6 | 3.2 | 0.08 | 0.46 | 0.08 | 89 | 1011.4 |
| 20260508060817 | 10 | 360 | 0.0 | 1.6 | 0.08 | 0.46 | 0.08 | 89 | 1011.4 |
| 20260508060320 | 10 | 360 | 0.0 | 1.6 | 0.08 | 0.46 | 0.08 | 89 | 1011.3 |
| 20260508055828 | 10 | 360 | 0.0 | 0.0 | 0.08 | 0.46 | 0.08 | 89 | 1011.1 |
| 20260508055336 | 10 | 360 | 0.0 | 0.0 | 0.08 | 0.46 | 0.08 | 89 | 1011.0 |
| 20260508054822 | 10 | 360 | 0.0 | 0.0 | 0.08 | 0.46 | 0.08 | 89 | 1011.0 |
| 20260508054327 | 10 | 360 | 0.0 | 0.0 | 0.05 | 0.43 | 0.05 | 89 | 1011.2 |
| 20260508053833 | 10 | 360 | 0.0 | 0.0 | 0.05 | 0.43 | 0.05 | 88 | 1011.4 |
| 20260508053318 | 10 | 360 | 0.0 | 0.0 | 0.03 | 0.38 | 0.00 | 88 | 1011.3 |
| 20260508052824 | 10 | 360 | 0.0 | 0.0 | 0.03 | 0.38 | 0.00 | 88 | 1011.0 |
| 20260508052326 | 10 | 360 | 0.0 | 0.0 | 0.03 | 0.38 | 0.38 | 88 | 1010.8 |
| 20260508051829 | 10 | 360 | 0.0 | 0.0 | 0.03 | 0.38 | 0.38 | 88 | 1011.0 |
| 20260508051334 | 10 | 360 | 0.0 | 0.0 | 0.03 | 0.38 | 0.38 | 88 | 1011.0 |
| 20260508050817 | 10 | 360 | 0.0 | 1.6 | 0.03 | 0.38 | 0.38 | 88 | 1010.9 |
| 20260508050322 | 10 | 360 | 0.0 | 1.6 | 0.03 | 0.38 | 0.38 | 88 | 1010.9 |
| 20260508045835 | 10 | 360 | 0.0 | 0.0 | 0.03 | 0.38 | 0.38 | 88 | 1011.2 |
| 20260508045318 | 10 | 360 | 0.0 | 0.0 | 0.05 | 0.38 | 0.38 | 87 | 1011.1 |
| 20260508044822 | 10 | 360 | 0.0 | 0.0 | 0.05 | 0.38 | 0.38 | 87 | 1010.9 |
| 20260508044327 | 10 | 360 | 0.0 | 1.6 | 0.05 | 0.38 | 0.38 | 87 | 1011.0 |
| 20260508043850 | 10 | 360 | 0.0 | 1.6 | 0.05 | 0.38 | 0.38 | 87 | 1011.1 |
| 20260508043333 | 10 | 360 | 0.0 | 1.6 | 0.03 | 0.36 | 0.36 | 86 | 1011.2 |
| 20260508042837 | 10 | 360 | 0.0 | 1.6 | 0.03 | 0.36 | 0.36 | 86 | 1010.8 |
| 20260508042336 | 10 | 360 | 0.0 | 0.0 | 0.03 | 0.36 | 0.36 | 86 | 1011.1 |
| 20260508041818 | 10 | 360 | 0.0 | 1.6 | 0.03 | 0.36 | 0.36 | 85 | 1010.9 |
| 20260508041321 | 10 | 360 | 0.0 | 1.6 | 0.03 | 0.36 | 0.36 | 85 | 1010.8 |
| 20260508040828 | 10 | 360 | 0.0 | 1.6 | 0.03 | 0.36 | 0.36 | 84 | 1010.7 |
| 20260508040334 | 11 | 360 | 0.0 | 3.2 | 0.03 | 0.36 | 0.36 | 83 | 1010.8 |
| 20260508035821 | 11 | 360 | 0.0 | 3.2 | 0.03 | 0.36 | 0.36 | 83 | 1010.7 |
| 20260508035327 | 11 | 360 | 0.0 | 0.0 | 0.00 | 0.33 | 0.33 | 81 | 1011.0 |
| 20260508034829 | 11 | 360 | 0.0 | 0.0 | 0.00 | 0.33 | 0.33 | 80 | 1011.0 |
| 20260508034334 | 10 | 360 | 0.0 | 1.6 | 0.00 | 0.33 | 0.33 | 81 | 1010.6 |
| 20260508033819 | 10 | 360 | 0.0 | 1.6 | 0.00 | 0.33 | 0.33 | 81 | 1010.5 |
| 20260508033326 | 10 | 360 | 0.0 | 1.6 | 0.00 | 0.33 | 0.33 | 82 | 1010.5 |
| 20260508032834 | 10 | 360 | 0.0 | 1.6 | 0.00 | 0.33 | 0.33 | 83 | 1010.5 |
| 20260508032318 | 10 | 360 | 0.0 | 0.0 | 0.00 | 0.33 | 0.33 | 83 | 1010.6 |
| 20260508031825 | 10 | 360 | 0.0 | 0.0 | 0.00 | 0.33 | 0.33 | 83 | 1010.7 |
| 20260508031331 | 11 | 360 | 0.0 | 0.0 | 0.00 | 0.33 | 0.33 | 82 | 1010.6 |
| 20260508030855 | 11 | 360 | 0.0 | 0.0 | 0.00 | 0.33 | 0.33 | 82 | 1010.7 |
| 20260508030337 | 11 | 360 | 0.0 | 1.6 | 0.00 | 0.33 | 0.33 | 82 | 1010.6 |
| 20260508025817 | 11 | 360 | 0.0 | 0.0 | 0.00 | 0.33 | 0.33 | 82 | 1010.6 |
| 20260508025321 | 11 | 360 | 0.0 | 0.0 | 0.00 | 0.33 | 0.33 | 82 | 1010.7 |
| 20260508024845 | 10 | 360 | 0.0 | 1.6 | 0.00 | 0.33 | 0.33 | 81 | 1010.5 |
| 20260508024330 | 10 | 360 | 0.0 | 1.6 | 0.00 | 0.33 | 0.33 | 81 | 1010.5 |
| 20260508023828 | 11 | 360 | 0.0 | 1.6 | 0.00 | 0.33 | 0.33 | 82 | 1010.5 |
| 20260508023330 | 11 | 360 | 0.0 | 0.0 | 0.00 | 0.33 | 0.33 | 82 | 1010.4 |
| 20260508022834 | 11 | 360 | 0.0 | 0.0 | 0.00 | 0.33 | 0.33 | 82 | 1010.4 |
| 20260508022316 | 11 | 360 | 0.0 | 0.0 | 0.00 | 0.33 | 0.33 | 81 | 1010.4 |
| 20260508021844 | 11 | 360 | 0.0 | 0.0 | 0.00 | 0.33 | 0.33 | 82 | 1010.4 |
| 20260508021330 | 11 | 360 | 0.0 | 0.0 | 0.00 | 0.33 | 0.33 | 81 | 1010.3 |
| 20260508020857 | 11 | 360 | 0.0 | 0.0 | 0.00 | 0.33 | 0.33 | 81 | 1010.4 |
| 20260508020323 | 11 | 360 | 0.0 | 1.6 | 0.00 | 0.33 | 0.33 | 82 | 1010.2 |
| 20260508015829 | 11 | 360 | 0.0 | 1.6 | 0.03 | 0.33 | 0.33 | 82 | 1010.3 |
| 20260508015335 | 11 | 360 | 0.0 | 0.0 | 0.03 | 0.33 | 0.33 | 82 | 1010.3 |
| 20260508014822 | 11 | 360 | 0.0 | 1.6 | 0.03 | 0.33 | 0.33 | 81 | 1010.2 |
| 20260508014328 | 11 | 360 | 0.0 | 1.6 | 0.03 | 0.33 | 0.33 | 82 | 1010.0 |
| 20260508013834 | 11 | 360 | 0.0 | 0.0 | 0.03 | 0.33 | 0.33 | 81 | 1010.0 |
| 20260508013321 | 11 | 360 | 0.0 | 0.0 | 0.05 | 0.33 | 0.33 | 81 | 1009.9 |
| 20260508012844 | 12 | 360 | 0.0 | 0.0 | 0.05 | 0.33 | 0.33 | 81 | 1009.9 |
| 20260508012330 | 12 | 360 | 0.0 | 0.0 | 0.05 | 0.33 | 0.33 | 80 | 1010.0 |
| 20260508011849 | 12 | 360 | 0.0 | 1.6 | 0.05 | 0.33 | 0.33 | 79 | 1010.0 |
| 20260508011331 | 12 | 360 | 0.0 | 1.6 | 0.05 | 0.33 | 0.33 | 78 | 1009.9 |
| 20260508010834 | 12 | 360 | 0.0 | 1.6 | 0.05 | 0.33 | 0.33 | 77 | 1009.8 |
| 20260508010358 | 13 | 360 | 0.0 | 1.6 | 0.05 | 0.33 | 0.33 | 76 | 1009.9 |
| 20260508005841 | 13 | 119 | 0.0 | 1.6 | 0.03 | 0.30 | 0.30 | 74 | 1009.9 |
| 20260508005324 | 14 | 111 | 0.0 | 1.6 | 0.03 | 0.30 | 0.30 | 71 | 1009.8 |
| 20260508004829 | 15 | 99 | 0.0 | 3.2 | 0.03 | 0.30 | 0.30 | 66 | 1009.7 |
| 20260508004347 | 16 | 126 | 0.0 | 12.9 | 0.03 | 0.30 | 0.30 | 65 | 1010.0 |
| 20260508003830 | 16 | 157 | 1.6 | 12.9 | 0.03 | 0.30 | 0.30 | 59 | 1010.0 |
| 20260508003333 | 16 | 28 | 1.6 | 6.4 | 0.00 | 0.28 | 0.28 | 55 | 1010.2 |
| 20260508002834 | 17 | 123 | 0.0 | 3.2 | 0.00 | 0.28 | 0.28 | 50 | 1009.9 |
| 20260508002317 | 17 | 96 | 0.0 | 1.6 | 0.00 | 0.28 | 0.28 | 50 | 1009.9 |
| 20260508001845 | 17 | 96 | 0.0 | 1.6 | 0.00 | 0.28 | 0.28 | 48 | 1009.7 |
| 20260508001332 | 17 | 96 | 0.0 | 1.6 | 0.00 | 0.28 | 0.28 | 48 | 1009.6 |
| 20260508000838 | 17 | 96 | 0.0 | 1.6 | 0.00 | 0.28 | 0.28 | 47 | 1009.6 |
| 20260508000324 | 17 | 96 | 0.0 | 6.4 | 0.00 | 0.28 | 0.28 | 47 | 1009.7 |
| 20260507235831 | 17 | 228 | 0.0 | 6.4 | 0.00 | 0.28 | 0.28 | 46 | 1009.6 |
| 20260507235334 | 18 | 242 | 1.6 | 6.4 | 0.00 | 0.28 | 0.28 | 44 | 1009.5 |
| 20260507234821 | 18 | 213 | 1.6 | 4.8 | 0.00 | 0.28 | 0.28 | 44 | 1009.6 |
| 20260507234326 | 18 | 238 | 1.6 | 3.2 | 0.00 | 0.28 | 0.28 | 44 | 1009.6 |
| 20260507233850 | 18 | 287 | 1.6 | 3.2 | 0.00 | 0.28 | 0.28 | 44 | 1009.6 |
| 20260507233334 | 18 | 232 | 1.6 | 4.8 | 0.00 | 0.28 | 0.28 | 44 | 1009.6 |
| 20260507232820 | 18 | 360 | 1.6 | 4.8 | 0.00 | 0.28 | 0.28 | 45 | 1009.6 |
| 20260507232326 | 18 | 360 | 1.6 | 9.7 | 0.00 | 0.28 | 0.28 | 45 | 1009.6 |
| 20260507231831 | 18 | 360 | 1.6 | 9.7 | 0.00 | 0.28 | 0.28 | 44 | 1009.7 |
| 20260507231334 | 18 | 360 | 0.0 | 6.4 | 0.00 | 0.28 | 0.28 | 45 | 1009.7 |
| 20260507230837 | 18 | 360 | 1.6 | 6.4 | 0.00 | 0.28 | 0.28 | 45 | 1009.7 |
| 20260507230319 | 18 | 298 | 1.6 | 4.8 | 0.00 | 0.28 | 0.28 | 44 | 1009.7 |
| 20260507225841 | 18 | 314 | 0.0 | 8.0 | 0.00 | 0.28 | 0.28 | 45 | 1009.7 |
| 20260507225324 | 18 | 205 | 3.2 | 8.0 | 0.00 | 0.28 | 0.28 | 43 | 1009.7 |
| 20260507224848 | 18 | 328 | 1.6 | 6.4 | 0.00 | 0.28 | 0.28 | 43 | 1009.7 |
| 20260507224327 | 18 | 277 | 1.6 | 11.3 | 0.00 | 0.28 | 0.28 | 44 | 1009.9 |
| 20260507223828 | 18 | 296 | 3.2 | 9.7 | 0.00 | 0.28 | 0.28 | 44 | 1009.8 |
| 20260507223325 | 18 | 341 | 3.2 | 9.7 | 0.00 | 0.28 | 0.28 | 43 | 1009.9 |
| 20260507222831 | 18 | 360 | 1.6 | 9.7 | 0.00 | 0.28 | 0.28 | 44 | 1009.9 |
| 20260507222335 | 18 | 360 | 4.8 | 14.5 | 0.00 | 0.28 | 0.28 | 42 | 1009.9 |
| 20260507221838 | 18 | 360 | 4.8 | 14.5 | 0.00 | 0.28 | 0.28 | 41 | 1010.0 |
| 20260507221321 | 18 | 360 | 1.6 | 12.9 | 0.00 | 0.28 | 0.28 | 42 | 1010.2 |
| 20260507220823 | 18 | 360 | 3.2 | 8.0 | 0.00 | 0.28 | 0.28 | 43 | 1010.0 |
| 20260507220357 | 18 | 340 | 3.2 | 11.3 | 0.00 | 0.28 | 0.28 | 43 | 1010.0 |
| 20260507215836 | 18 | 288 | 4.8 | 11.3 | 0.00 | 0.28 | 0.28 | 42 | 1010.0 |
| 20260507215320 | 18 | 195 | 4.8 | 11.3 | 0.00 | 0.28 | 0.28 | 42 | 1010.1 |
| 20260507214845 | 18 | 360 | 3.2 | 11.3 | 0.00 | 0.28 | 0.28 | 42 | 1010.1 |
| 20260507214329 | 18 | 360 | 1.6 | 11.3 | 0.00 | 0.28 | 0.28 | 43 | 1010.2 |
| 20260507213834 | 18 | 360 | 4.8 | 8.0 | 0.00 | 0.28 | 0.28 | 44 | 1010.2 |
| 20260507213356 | 18 | 360 | 3.2 | 8.0 | 0.00 | 0.28 | 0.28 | 43 | 1010.2 |
| 20260507212821 | 18 | 320 | 1.6 | 12.9 | 0.00 | 0.28 | 0.28 | 45 | 1010.2 |
| 20260507212329 | 18 | 252 | 3.2 | 12.9 | 0.00 | 0.28 | 0.28 | 44 | 1010.2 |
| 20260507211835 | 18 | 210 | 3.2 | 11.3 | 0.00 | 0.28 | 0.28 | 43 | 1010.2 |
| 20260507211319 | 17 | 360 | 4.8 | 12.9 | 0.00 | 0.28 | 0.28 | 43 | 1010.3 |
| 20260507210827 | 17 | 360 | 4.8 | 12.9 | 0.00 | 0.28 | 0.28 | 44 | 1010.3 |
| 20260507210331 | 17 | 252 | 3.2 | 16.1 | 0.00 | 0.28 | 0.28 | 44 | 1010.3 |
| 20260507205817 | 17 | 279 | 3.2 | 16.1 | 0.00 | 0.28 | 0.28 | 46 | 1010.3 |
| 20260507205324 | 17 | 234 | 6.4 | 14.5 | 0.00 | 0.28 | 0.28 | 43 | 1010.4 |
| 20260507204829 | 17 | 202 | 3.2 | 12.9 | 0.00 | 0.28 | 0.28 | 46 | 1010.4 |
| 20260507204333 | 16 | 360 | 3.2 | 16.1 | 0.00 | 0.28 | 0.28 | 47 | 1010.5 |
| 20260507203827 | 16 | 337 | 6.4 | 16.1 | 0.00 | 0.28 | 0.28 | 48 | 1010.5 |
| 20260507203324 | 16 | 257 | 6.4 | 12.9 | 0.00 | 0.28 | 0.28 | 47 | 1010.6 |
| 20260507202836 | 16 | 212 | 1.6 | 14.5 | 0.00 | 0.28 | 0.28 | 53 | 1010.8 |
| 20260507202318 | 16 | 307 | 4.8 | 14.5 | 0.00 | 0.28 | 0.28 | 53 | 1011.0 |
| 20260507201822 | 15 | 107 | 1.6 | 14.5 | 0.00 | 0.28 | 0.28 | 52 | 1011.0 |
| 20260507201326 | 15 | 211 | 3.2 | 9.7 | 0.00 | 0.28 | 0.28 | 56 | 1011.1 |
| 20260507200828 | 15 | 283 | 3.2 | 12.9 | 0.00 | 0.28 | 0.28 | 52 | 1011.1 |
| 20260507200349 | 15 | 313 | 4.8 | 12.9 | 0.00 | 0.28 | 0.28 | 52 | 1011.3 |
| 20260507195831 | 15 | 203 | 6.4 | 16.1 | 0.00 | 0.28 | 0.28 | 51 | 1011.3 |
| 20260507195358 | 16 | 272 | 4.8 | 16.1 | 0.00 | 0.28 | 0.28 | 51 | 1011.1 |
| 20260507194843 | 16 | 360 | 1.6 | 19.3 | 0.00 | 0.28 | 0.28 | 49 | 1011.3 |
| 20260507194350 | 16 | 360 | 6.4 | 19.3 | 0.00 | 0.28 | 0.28 | 51 | 1011.3 |
| 20260507193834 | 16 | 360 | 1.6 | 16.1 | 0.00 | 0.28 | 0.28 | 56 | 1011.6 |
| 20260507193321 | 16 | 360 | 4.8 | 16.1 | 0.00 | 0.28 | 0.28 | 53 | 1011.7 |
| 20260507192828 | 16 | 360 | 3.2 | 12.9 | 0.00 | 0.28 | 0.28 | 53 | 1011.7 |
| 20260507192336 | 16 | 360 | 4.8 | 14.5 | 0.00 | 0.28 | 0.28 | 53 | 1011.7 |
| 20260507191822 | 16 | 360 | 4.8 | 17.7 | 0.00 | 0.28 | 0.28 | 52 | 1011.5 |
| 20260507191348 | 16 | 360 | 6.4 | 16.1 | 0.00 | 0.28 | 0.28 | 54 | 1011.6 |
| 20260507190827 | 15 | 269 | 1.6 | 16.1 | 0.00 | 0.28 | 0.28 | 58 | 1011.6 |
| 20260507190355 | 15 | 259 | 3.2 | 16.1 | 0.00 | 0.28 | 0.28 | 58 | 1011.8 |
| 20260507185819 | 15 | 237 | 3.2 | 16.1 | 0.00 | 0.28 | 0.28 | 62 | 1011.9 |
| 20260507185334 | 15 | 286 | 3.2 | 11.3 | 0.00 | 0.28 | 0.28 | 63 | 1011.8 |
| 20260507184830 | 15 | 264 | 3.2 | 11.3 | 0.00 | 0.28 | 0.28 | 64 | 1011.8 |
| 20260507184345 | 14 | 238 | 3.2 | 9.7 | 0.00 | 0.28 | 0.28 | 66 | 1011.9 |
| 20260507183833 | 14 | 172 | 1.6 | 11.3 | 0.00 | 0.28 | 0.28 | 64 | 1011.9 |
| 20260507183317 | 13 | 241 | 3.2 | 11.3 | 0.00 | 0.28 | 0.28 | 66 | 1012.1 |
| 20260507182837 | 13 | 277 | 1.6 | 8.0 | 0.00 | 0.28 | 0.28 | 71 | 1012.1 |
| 20260507182316 | 13 | 99 | 1.6 | 6.4 | 0.00 | 0.28 | 0.28 | 73 | 1011.8 |
| 20260507181822 | 13 | 162 | 3.2 | 6.4 | 0.00 | 0.28 | 0.28 | 73 | 1012.1 |
| 20260507181328 | 12 | 80 | 1.6 | 6.4 | 0.00 | 0.28 | 0.28 | 76 | 1012.2 |
| 20260507180855 | 12 | 187 | 1.6 | 4.8 | 0.00 | 0.28 | 0.28 | 79 | 1012.2 |
| 20260507180318 | 11 | 24 | 0.0 | 3.2 | 0.00 | 0.28 | 0.28 | 80 | 1012.3 |
| 20260507175825 | 11 | 186 | 0.0 | 1.6 | 0.00 | 0.28 | 0.28 | 79 | 1012.5 |
| 20260507175326 | 11 | 360 | 0.0 | 3.2 | 0.00 | 0.28 | 0.28 | 81 | 1012.6 |
| 20260507174833 | 11 | 360 | 0.0 | 4.8 | 0.00 | 0.28 | 0.28 | 81 | 1012.8 |
| 20260507174339 | 10 | 360 | 0.0 | 4.8 | 0.03 | 0.28 | 0.28 | 81 | 1013.0 |
| 20260507173825 | 10 | 360 | 1.6 | 3.2 | 0.03 | 0.28 | 0.28 | 82 | 1013.1 |
| 20260507173329 | 10 | 360 | 0.0 | 3.2 | 0.03 | 0.28 | 0.28 | 83 | 1013.3 |
| 20260507172836 | 10 | 360 | 0.0 | 4.8 | 0.05 | 0.28 | 0.28 | 82 | 1013.3 |
| 20260507172324 | 10 | 360 | 0.0 | 8.0 | 0.05 | 0.28 | 0.28 | 81 | 1013.1 |
| 20260507171827 | 10 | 360 | 1.6 | 8.0 | 0.08 | 0.28 | 0.28 | 82 | 1013.4 |
| 20260507171330 | 10 | 360 | 0.0 | 4.8 | 0.08 | 0.28 | 0.28 | 82 | 1013.7 |
| 20260507170833 | 10 | 360 | 0.0 | 4.8 | 0.10 | 0.28 | 0.28 | 83 | 1013.5 |
| 20260507170316 | 10 | 360 | 0.0 | 4.8 | 0.10 | 0.28 | 0.28 | 82 | 1013.7 |
| 20260507165818 | 10 | 360 | 0.0 | 6.4 | 0.10 | 0.28 | 0.28 | 81 | 1013.4 |
| 20260507165323 | 10 | 360 | 0.0 | 19.3 | 0.10 | 0.28 | 0.28 | 80 | 1013.7 |
| 20260507164828 | 10 | 360 | 3.2 | 19.3 | 0.10 | 0.28 | 0.28 | 80 | 1013.5 |
| 20260507164331 | 10 | 360 | 0.0 | 9.7 | 0.08 | 0.25 | 0.25 | 81 | 1013.6 |
| 20260507163829 | 9 | 360 | 1.6 | 9.7 | 0.08 | 0.25 | 0.25 | 81 | 1013.9 |
| 20260507163333 | 9 | 360 | 1.6 | 8.0 | 0.08 | 0.25 | 0.25 | 81 | 1014.0 |
| 20260507162836 | 9 | 360 | 0.0 | 3.2 | 0.05 | 0.23 | 0.23 | 82 | 1014.2 |
| 20260507162318 | 9 | 360 | 0.0 | 3.2 | 0.05 | 0.23 | 0.23 | 85 | 1014.2 |
| 20260507161824 | 9 | 360 | 0.0 | 0.0 | 0.03 | 0.20 | 0.20 | 85 | 1014.1 |
| 20260507161350 | 9 | 360 | 0.0 | 3.2 | 0.00 | 0.18 | 0.18 | 84 | 1013.9 |
| 20260507160817 | 9 | 360 | 0.0 | 3.2 | 0.00 | 0.18 | 0.18 | 83 | 1013.9 |
| 20260507160322 | 9 | 360 | 0.0 | 3.2 | 0.08 | 0.18 | 0.18 | 83 | 1013.5 |
| 20260507155829 | 8 | 360 | 0.0 | 6.4 | 0.13 | 0.18 | 0.18 | 85 | 1013.1 |
| 20260507155335 | 8 | 360 | 1.6 | 6.4 | 0.15 | 0.18 | 0.18 | 84 | 1013.3 |
| 20260507154821 | 8 | 360 | 0.0 | 1.6 | 0.15 | 0.18 | 0.18 | 85 | 1013.4 |
| 20260507154328 | 8 | 360 | 0.0 | 4.8 | 0.15 | 0.18 | 0.18 | 85 | 1013.3 |
| 20260507153836 | 8 | 360 | 0.0 | 4.8 | 0.18 | 0.18 | 0.18 | 84 | 1013.3 |
| 20260507153321 | 8 | 360 | 0.0 | 3.2 | 0.18 | 0.18 | 0.18 | 84 | 1013.2 |
| 20260507152828 | 8 | 360 | 0.0 | 6.4 | 0.18 | 0.18 | 0.18 | 85 | 1013.2 |
| 20260507152350 | 8 | 360 | 3.2 | 6.4 | 0.18 | 0.18 | 0.18 | 85 | 1013.2 |
| 20260507151832 | 8 | 360 | 0.0 | 4.8 | 0.18 | 0.18 | 0.18 | 83 | 1013.4 |
| 20260507151357 | 8 | 360 | 0.0 | 6.4 | 0.18 | 0.18 | 0.18 | 82 | 1013.8 |
| 20260507150838 | 8 | 360 | 1.6 | 8.0 | 0.15 | 0.15 | 0.15 | 80 | 1014.3 |
| 20260507150341 | 8 | 360 | 1.6 | 8.0 | 0.10 | 0.10 | 0.10 | 77 | 1015.0 |
| 20260507145818 | 9 | 360 | 1.6 | 8.0 | 0.05 | 0.05 | 0.05 | 74 | 1015.0 |
| 20260507145343 | 9 | 360 | 3.2 | 12.9 | 0.03 | 0.03 | 0.03 | 72 | 1014.8 |
| 20260507144818 | 10 | 360 | 4.8 | 12.9 | 0.03 | 0.03 | 0.03 | 67 | 1014.7 |
| 20260507144338 | 10 | 360 | 1.6 | 6.4 | 0.03 | 0.03 | 0.03 | 69 | 1014.4 |
| 20260507143821 | 11 | 360 | 1.6 | 6.4 | 0.00 | 0.00 | 0.00 | 66 | 1014.7 |
| 20260507143325 | 11 | 360 | 1.6 | 16.1 | 0.00 | 0.00 | 0.00 | 61 | 1014.4 |
| 20260507142828 | 11 | 360 | 4.8 | 16.1 | 0.00 | 0.00 | 0.00 | 57 | 1014.3 |
| 20260507142332 | 11 | 223 | 1.6 | 8.0 | 0.00 | 0.00 | 0.00 | 53 | 1014.4 |
| 20260507141837 | 11 | 290 | 1.6 | 8.0 | 0.00 | 0.00 | 0.00 | 52 | 1014.3 |
| 20260507141322 | 11 | 297 | 3.2 | 8.0 | 0.00 | 0.00 | 0.00 | 51 | 1013.8 |
| 20260507140829 | 11 | 15 | 0.0 | 4.8 | 0.00 | 0.00 | 0.00 | 52 | 1013.7 |
| 20260507140336 | 12 | 325 | 0.0 | 8.0 | 0.00 | 0.00 | 0.00 | 50 | 1013.5 |
| 20260507135823 | 12 | 254 | 1.6 | 8.0 | 0.00 | 0.00 | 0.00 | 53 | 1013.4 |
| 20260507135330 | 11 | 258 | 1.6 | 6.4 | 0.00 | 0.00 | 0.00 | 52 | 1013.4 |
| 20260507134835 | 11 | 93 | 1.6 | 4.8 | 0.00 | 0.00 | 0.00 | 51 | 1013.4 |
| 20260507134322 | 11 | 176 | 0.0 | 4.8 | 0.00 | 0.00 | 0.00 | 55 | 1013.4 |
| 20260507133828 | 11 | 360 | 1.6 | 4.8 | 0.00 | 0.00 | 0.00 | 54 | 1013.4 |
| 20260507133328 | 11 | 360 | 0.0 | 4.8 | 0.00 | 0.00 | 0.00 | 54 | 1013.4 |
| 20260507132832 | 11 | 360 | 1.6 | 4.8 | 0.00 | 0.00 | 0.00 | 57 | 1013.4 |
| 20260507132336 | 10 | 360 | 0.0 | 4.8 | 0.00 | 0.00 | 0.00 | 59 | 1013.7 |
| 20260507131819 | 10 | 360 | 1.6 | 6.4 | 0.00 | 0.00 | 0.00 | 58 | 1013.7 |
| 20260507131343 | 9 | 360 | 0.0 | 6.4 | 0.00 | 0.00 | 0.00 | 62 | 1013.8 |
| 20260507130824 | 8 | 360 | 1.6 | 4.8 | 0.00 | 0.00 | 0.00 | 62 | 1014.0 |
| 20260507130326 | 8 | 360 | 1.6 | 4.8 | 0.00 | 0.00 | 0.00 | 67 | 1014.1 |
| 20260507125829 | 7 | 360 | 0.0 | 3.2 | 0.00 | 0.00 | 0.00 | 70 | 1014.1 |
| 20260507125333 | 7 | 360 | 0.0 | 4.8 | 0.00 | 0.00 | 0.00 | 70 | 1014.2 |
| 20260507124835 | 6 | 360 | 1.6 | 4.8 | 0.00 | 0.00 | 0.00 | 72 | 1014.2 |
| 20260507124318 | 6 | 360 | 0.0 | 1.6 | 0.00 | 0.00 | 0.00 | 75 | 1014.2 |
| 20260507123822 | 5 | 360 | 0.0 | 0.0 | 0.00 | 0.00 | 0.00 | 78 | 1014.4 |
| 20260507123323 | 5 | 360 | 0.0 | 3.2 | 0.00 | 0.00 | 0.00 | 79 | 1014.4 |
| 20260507122823 | 5 | 360 | 0.0 | 8.0 | 0.00 | 0.00 | 0.00 | 81 | 1014.3 |
| 20260507122322 | 4 | 360 | 0.0 | 8.0 | 0.00 | 0.00 | 0.00 | 83 | 1014.3 |
| 20260507121829 | 3 | 360 | 0.0 | 4.8 | 0.00 | 0.00 | 0.00 | 87 | 1014.2 |
| 20260507121333 | 3 | 360 | 0.0 | 3.2 | 0.00 | 0.00 | 0.00 | 89 | 1014.0 |
| 20260507120818 | 2 | 360 | 0.0 | 1.6 | 0.00 | 0.00 | 0.00 | 89 | 1014.0 |
| 20260507120323 | 2 | 360 | 0.0 | 3.2 | 0.00 | 0.00 | 0.00 | 89 | 1014.3 |
| 20260507115852 | 2 | 360 | 0.0 | 3.2 | 0.00 | 0.00 | 0.00 | 89 | 1014.1 |
| 20260507115338 | 1 | 360 | 0.0 | 3.2 | 0.00 | 0.00 | 0.00 | 89 | 1014.4 |
| 20260507114826 | 1 | 360 | 0.0 | 1.6 | 0.00 | 0.00 | 0.00 | 89 | 1014.4 |
| 20260507114331 | 1 | 360 | 0.0 | 3.2 | 0.00 | 0.00 | 0.00 | 89 | 1014.5 |
| 20260507113817 | 0 | 360 | 0.0 | 3.2 | 0.00 | 0.00 | 0.00 | 89 | 1014.4 |
| 20260507113324 | 0 | 360 | 0.0 | 1.6 | 0.00 | 0.00 | 0.00 | 89 | 1014.4 |
| 20260507112829 | 0 | 360 | 0.0 | 3.2 | 0.00 | 0.00 | 0.00 | 89 | 1014.4 |
| 20260507112317 | 0 | 360 | 1.6 | 3.2 | 0.00 | 0.00 | 0.00 | 89 | 1014.4 |
| 20260507111820 | 0 | 360 | 0.0 | 1.6 | 0.00 | 0.00 | 0.00 | 89 | 1014.3 |
| 20260507111324 | 0 | 360 | 0.0 | 1.6 | 0.00 | 0.00 | 0.00 | 89 | 1014.3 |
| 20260507110845 | 0 | 360 | 0.0 | 1.6 | 0.00 | 0.00 | 0.00 | 89 | 1014.3 |
| 20260507110327 | 0 | 360 | 0.0 | 0.0 | 0.00 | 0.00 | 0.00 | 89 | 1014.4 |
| 20260507105831 | 0 | 360 | 0.0 | 0.0 | 0.00 | 0.00 | 0.00 | 89 | 1014.4 |
| 20260507105354 | 0 | 360 | 0.0 | 0.0 | 0.00 | 0.00 | 0.00 | 88 | 1014.4 |
| 20260507104837 | 0 | 360 | 0.0 | 0.0 | 0.00 | 0.00 | 0.00 | 88 | 1014.4 |
| 20260507104319 | 0 | 360 | 0.0 | 0.0 | 0.00 | 0.00 | 0.00 | 88 | 1014.4 |
| 20260507103842 | 0 | 360 | 0.0 | 0.0 | 0.00 | 0.00 | 0.00 | 88 | 1014.3 |
| 20260507103323 | 0 | 360 | 0.0 | 0.0 | 0.00 | 0.00 | 0.00 | 88 | 1014.4 |
| 20260507102825 | 0 | 360 | 0.0 | 0.0 | 0.00 | 0.00 | 0.00 | 88 | 1014.5 |
| 20260507102350 | 0 | 360 | 0.0 | 0.0 | 0.00 | 0.00 | 0.00 | 89 | 1014.5 |
| 20260507101831 | 0 | 360 | 0.0 | 0.0 | 0.00 | 0.00 | 0.00 | 88 | 1014.6 |
| 20260507101319 | 0 | 360 | 0.0 | 0.0 | 0.00 | 0.00 | 0.00 | 88 | 1014.6 |
| 20260507100849 | 0 | 360 | 0.0 | 0.0 | 0.00 | 0.00 | 0.00 | 88 | 1014.7 |
| 20260507100332 | 0 | 360 | 0.0 | 0.0 | 0.00 | 0.00 | 0.00 | 88 | 1014.8 |
| 20260507095819 | 0 | 360 | 0.0 | 0.0 | 0.00 | 0.00 | 0.00 | 88 | 1014.7 |
| 20260507095326 | 0 | 360 | 0.0 | 0.0 | 0.00 | 0.00 | 0.00 | 88 | 1014.8 |
| 20260507094830 | 0 | 360 | 0.0 | 0.0 | 0.00 | 0.00 | 0.00 | 88 | 1014.7 |
| 20260507094337 | 0 | 360 | 0.0 | 0.0 | 0.00 | 0.00 | 0.00 | 88 | 1014.8 |
| 20260507093845 | 0 | 360 | 0.0 | 0.0 | 0.00 | 0.00 | 0.00 | 88 | 1014.8 |
| 20260507093330 | 0 | 360 | 0.0 | 0.0 | 0.00 | 0.00 | 0.00 | 88 | 1014.9 |
| 20260507092836 | 0 | 360 | 0.0 | 0.0 | 0.00 | 0.00 | 0.00 | 88 | 1014.9 |
| 20260507092324 | 0 | 360 | 0.0 | 1.6 | 0.00 | 0.00 | 0.00 | 88 | 1014.8 |
| 20260507091825 | 0 | 360 | 0.0 | 1.6 | 0.00 | 0.00 | 0.00 | 88 | 1014.8 |
| 20260507091322 | 0 | 360 | 0.0 | 0.0 | 0.00 | 0.00 | 0.00 | 88 | 1014.9 |
| 20260507090824 | 0 | 360 | 0.0 | 0.0 | 0.00 | 0.00 | 0.00 | 88 | 1014.9 |
| 20260507090322 | 0 | 360 | 0.0 | 1.6 | 0.00 | 0.00 | 0.00 | 88 | 1015.0 |
| 20260507085822 | 0 | 360 | 0.0 | 1.6 | 0.00 | 0.00 | 0.00 | 88 | 1015.0 |
| 20260507085326 | 0 | 360 | 0.0 | 0.0 | 0.00 | 0.00 | 0.00 | 88 | 1015.0 |
| 20260507084827 | 0 | 360 | 0.0 | 0.0 | 0.00 | 0.00 | 0.00 | 88 | 1015.2 |
| 20260507084331 | 0 | 360 | 0.0 | 0.0 | 0.00 | 0.00 | 0.00 | 88 | 1015.2 |
| 20260507083834 | 0 | 360 | 0.0 | 0.0 | 0.00 | 0.00 | 0.00 | 88 | 1015.2 |
| 20260507083317 | 0 | 360 | 0.0 | 0.0 | 0.00 | 0.00 | 0.00 | 88 | 1015.3 |
| 20260507082821 | 0 | 360 | 0.0 | 0.0 | 0.00 | 0.00 | 0.00 | 88 | 1015.2 |
| 20260507082345 | 0 | 360 | 0.0 | 1.6 | 0.00 | 0.00 | 0.00 | 88 | 1015.2 |
| 20260507081830 | 1 | 360 | 0.0 | 1.6 | 0.00 | 0.00 | 0.00 | 88 | 1015.3 |
| 20260507081318 | 1 | 360 | 0.0 | 0.0 | 0.00 | 0.00 | 0.00 | 88 | 1015.3 |
| 20260507080845 | 1 | 360 | 0.0 | 0.0 | 0.00 | 0.00 | 0.00 | 88 | 1015.3 |
| 20260507080328 | 1 | 360 | 0.0 | 0.0 | 0.00 | 0.00 | 0.00 | 87 | 1015.4 |
| 20260507075834 | 1 | 360 | 0.0 | 0.0 | 0.00 | 0.00 | 0.00 | 88 | 1015.4 |
| 20260507075321 | 1 | 360 | 0.0 | 0.0 | 0.00 | 0.00 | 0.00 | 88 | 1015.5 |
| 20260507074847 | 1 | 360 | 0.0 | 1.6 | 0.00 | 0.00 | 0.00 | 88 | 1015.6 |
| 20260507074333 | 1 | 360 | 0.0 | 1.6 | 0.00 | 0.00 | 0.00 | 87 | 1015.5 |
| 20260507073819 | 1 | 360 | 0.0 | 1.6 | 0.00 | 0.00 | 0.00 | 87 | 1015.5 |